Regional Weather Roundup
Issued by NWS

Home | Current Version | Previous Version | Text Only | Print | Product List | Glossary Off
Versions: 1 2 3 4 5 6 7 8 9 10 11 12 13 14 15 16 17 18 19 20 21 22 23 24 25 26 27 28 29 30 31 32 33 34 35 36 37 38 39 40 41 42 43 44 45 46 47 48 49 50

000
ASUS43 KLOT 242313
RWRIL

ILLINOIS REGIONAL WEATHER ROUNDUP
NATIONAL WEATHER SERVICE CHICAGO/ROMEOVILLE IL
600 PM CDT SUN MAY 24 2015

NOTE: "FAIR" INDICATES FEW OR NO CLOUDS BELOW 12,000 FEET WITH NO
SIGNIFICANT WEATHER AND/OR OBSTRUCTIONS TO VISIBILITY.

* THESE STATIONS ARE NOT UNDER NWS QUALITY CONTROL. THEY ALSO MAY NOT
  REPORT WEATHER SUCH AS PRECIPITATION OR FOG.

ILZ001-002-007-009-015-016-024-250000-
NORTHWEST ILLINOIS

CITY           SKY/WX    TMP DP  RH WIND       PRES   REMARKS
MOLINE         LGT RAIN  73  68  84 S8        29.86S
STERLING*      CLOUDY    72  66  83 S8G18     29.89R
SAVANNA*       LGT RAIN  69  67  91 N6        29.87F
$$

ILZ003-004-008-010-011-017-018-250000-
NORTH CENTRAL ILLINOIS

CITY           SKY/WX    TMP DP  RH WIND       PRES   REMARKS
ROCKFORD       PTSUNNY   69  62  78 E12       29.92F
FREEPORT*      CLOUDY    69  65  87 E14       29.91F
ROCHELLE*      PTSUNNY   72  68  86 E13       29.91F
DE KALB*       MOSUNNY   70  64  82 E15       29.93F
PERU*          PTSUNNY   82  63  52 S18       29.89F HX  83
$$

ILZ005-006-012>014-019>023-250000-
NORTHEAST ILLINOIS

CITY           SKY/WX    TMP DP  RH WIND       PRES   REMARKS
CHICAGO-OHARE  CLOUDY    64  61  90 E9        29.96F
CHICAGO-MIDWAY CLOUDY    67  64  90 NE7       29.95F
AURORA         MOSUNNY   73  66  78 E13       29.92F HAZE
LANSING*       CLOUDY    74  62  66 CALM      29.96F
JOLIET*        PTSUNNY   72  70  94 NE5       29.94F
WAUKEGAN       CLOUDY    56  52  86 E7        29.98F
DUPAGE AIRPORT PTSUNNY   68  63  84 E12       29.94F
KANKAKEE*      PTSUNNY   82  62  51 S20G28    29.95F HX  82
WHEELING       LGT RAIN  62  59  90 NE6       29.98F FOG
MORRIS*        PTSUNNY   74  68  83 E8        29.91F
ROMEOVILLE*    PTSUNNY   69  68  97 E9        29.94F FOG
NORTHERLY ISL    N/A     58  55  90 N6          N/A
$$

LMZ740>746-250000-
SOUTHERN LAKE MICHIGAN

STATION/POSITION SKY/WX   TEMP    WIND        PRES    VSBY  WAVE
                          AIR SEA DIR/SP/G                  HT/PER
                          (F)     (DEG/KT/KT) (MB)    (MI)  (FT/S)
SOUTHERN BUOY              48 38  100/ 12/ 12 1016.6F         1
HARRISON CRIB              58     180/  2/  3   N/A
BURNHAM HARBOR             57     350/  5/  7   N/A
CALUMET HARBOR             65     300/  7/  9   N/A
BURNS HARBOR               67     220/  4/ 15 1015.9S
MICHIGAN CITY              81     130/ 11/ 14   N/A
MICHIGAN CITY 6N           64 55   10/  4/  6   N/A           1
ST. JOSEPH                 69 56  290/ 10/ 17   N/A           1
$$

ILZ025>027-034>036-040-047-049-050-058-095>099-250000-
WEST-CENTRAL ILLINOIS

CITY           SKY/WX    TMP DP  RH WIND       PRES   REMARKS
QUINCY         LGT RAIN  70  68  93 SW12      29.89R FOG
GALESBURG*     LGT RAIN  77  66  68 S14       29.87S
MACOMB*        MOSUNNY   75  67  76 S9        29.88R
JACKSONVILLE*  PTSUNNY   84  64  51 S17G26    29.88S HX  85
PITTSFIELD*    MOSUNNY   79  65  61 S7        29.88S HX  81
$$

ILZ028>032-037-038-041>044-048-051>054-059>061-250000-
CENTRAL ILLINOIS

CITY           SKY/WX    TMP DP  RH WIND       PRES   REMARKS
PONTIAC        PTSUNNY   84  64  50 S22G30    29.93F HX  85
BLOOMINGTON    MOSUNNY   82  64  54 S23G32    29.93F HX  83
DECATUR        CLOUDY    83  62  49 S18G28    29.94F HX  84
PEORIA         PTSUNNY   83  62  49 S15G24    29.87F HX  84
LACON*         PTSUNNY   82  62  50 S10G20    29.87F HX  83
LINCOLN*       CLOUDY    83  62  48 S18G26    29.88F HX  84
SPRINGFIELD    MOSUNNY   85  64  49 S20G32    29.90F HX  86
TAYLORVILLE    PTSUNNY   81  63  54 S17G23    29.92F HX  82
$$

ILZ033-039-045-046-055>057-062-063-250000-
EAST-CENTRAL ILLINOIS

CITY           SKY/WX    TMP DP  RH WIND       PRES   REMARKS
CHAMPAIGN      MOSUNNY   85  60  42 S21G30    29.96F HX  85
DANVILLE*      MOSUNNY   81  61  50 S17G25    29.96F HX  81
RANTOUL*       MOSUNNY   85  62  44 S24G30    29.96F HX  85
MATTOON        PTSUNNY   81  61  50 S15G31    29.97F HX  82
PARIS*         SUNNY     84  61  45 SE23      30.00F HX  84
$$

ILZ079-100>102-250000-
SOUTHWEST ILLINOIS

CITY           SKY/WX    TMP DP  RH WIND       PRES   REMARKS
ALTON          PTSUNNY  N/A N/A N/A MISG      29.91F
BELLEVILLE     PTSUNNY   81  67  62 S14       29.91F HX  84
CAHOKIA*       PTSUNNY   81  64  56 S14G26    29.91S HX  82
SPARTA*        CLOUDY    80  65  59 S14       29.95F HX  82
$$

ILZ064>066-069>071-074>076-080>082-084>086-088>090-092>094-250000-
SOUTH-CENTRAL ILLINOIS

CITY           SKY/WX    TMP DP  RH WIND       PRES   REMARKS
CARBONDALE     PTSUNNY   83  64  52 S13G23    29.96S HX  84
CAIRO*         CLOUDY    84  65  52 SE14G21   29.96F HX  86
EFFINGHAM*     MOSUNNY   82  57  42 SE9G23    29.98F HX  82
MARION         CLOUDY    82  68  61 S12       29.98F HX  85
MT. VERNON     PTSUNNY   82  64  54 S13G21    29.98F HX  84
CENTRALIA*     CLOUDY    83  62  49 SE13      29.96S HX  83
SALEM*         PTSUNNY   85  61  44 SE9       29.96F HX  85
METROPOLIS*    CLOUDY    83  66  56 SE9G18    29.98F HX  85
$$

ILZ067-068-072-073-078-083-087-091-250000-
SOUTHEAST ILLINOIS

CITY           SKY/WX    TMP DP  RH WIND       PRES   REMARKS
LAWRENCEVILLE  MOSUNNY   82  63  52 SE20G30   30.01F HX  83
FLORA*         MOSUNNY   83  63  50 SE13      29.99S HX  84
FAIRFIELD*     PTSUNNY   83  64  53 SE16G24   29.97S HX  84
HARRISBURG*    PTSUNNY   82  64  54 S14       30.00S HX  84
ROBINSON*      PTSUNNY   83  61  46 SE18G25   30.01F HX  83
CARMI*         PTSUNNY   82  59  44 SE20      30.00S HX  82
$$

ABBREVIATIONS USED IN REMARKS
   TC - TEMPERATURE IN CELSIUS
  WCI - WIND CHILL INDEX
   HX - HEAT INDEX
  VSB - VISIBILITY
$$




USA.gov is the U.S. government's official web portal to all federal, state and local government web resources and services.